Flag for Germany Weather past 2 weeks in Bad Oeynhausen, North Rhine-Westphalia, Germany

64 °F

Partly sunny.

Feels Like: 64 °F
Forecast: 54 / 59 °F
Wind: 7 mph from Southwest

Location: Bueckeburg

Current Time: Oct 7, 2015 at 12:48:42 PM

Latest Report: Oct 7, 2015 at 12:20 PM

Visibility: N/A

Pressure: 29.83 "Hg

Humidity: 78%

Dew point: 57 °F

Location of Bad OeynhausenLocation

Historic Weather in Bad Oeynhausen — Graph


Bad Oeynhausen temperature yesterday

Maximum temperature yesterday: 66 °F (at 4:20 PM)
Minimum temperature yesterday: 55 °F (at 4:20 AM)
Average temperature yesterday: 59 °F

Past Weeks' High & Low Weather Summary

High68 °F (Oct 3, 3:20 PM)100% (Sep 23, 9:20 PM)30.69 "Hg (Sep 23, 9:20 PM)
Low36 °F (Oct 2, 6:20 AM)42% (Oct 1, 4:20 PM)29.53 "Hg (Sep 22, 4:20 PM)
Average53 °F84%30.18 "Hg
* Reported Sep 22 11:20 AM — Oct 7 11:20 AM, Bad Oeynhausen, Weather by CustomWeather, © 2015

Note: Actual official high and low records may vary slightly from our data, if they occured in-between our weather recording intervals... More about our weather records


Bad Oeynhausen weather history for previous 24 hours

Time TempWeatherWind HumidityBarometerVisibility
11:20 AM
Wed, Oct 7
64 °FBroken clouds.6 mph83%29.80 "HgN/A
10:20 AM63 °FBroken clouds.6 mph88%29.80 "HgN/A
9:20 AM61 °FPartly sunny.7 mph94%29.77 "HgN/A
8:20 AM61 °FPassing clouds.7 mph88%29.77 "HgN/A
7:20 AM61 °FPassing clouds.8 mph88%29.74 "HgN/A
6:20 AM61 °FPassing clouds.7 mph88%29.74 "HgN/A
5:20 AM61 °FPassing clouds.8 mph94%29.71 "HgN/A
4:20 AM61 °FPartly cloudy.9 mph94%29.71 "HgN/A
3:20 AM61 °FPassing clouds.7 mph94%29.71 "HgN/A
2:20 AM61 °FPartly cloudy.7 mph94%29.71 "HgN/A
1:20 AM61 °FPartly cloudy.7 mph94%29.68 "HgN/A
12:20 AM61 °FPartly cloudy.9 mph94%29.68 "HgN/A
11:20 PM
Tue, Oct 6
61 °FPartly cloudy.7 mph94%29.68 "Hg5 mi
10:20 PM61 °FRain. Fog.7 mph94%29.68 "Hg3 mi
9:56 PM61 °FRain. Fog.10 mph94%29.68 "Hg3 mi
9:20 PM61 °FLight rain. Passing clouds.10 mph94%29.68 "HgN/A
8:20 PM63 °FLight rain. Partly cloudy.10 mph83%29.68 "HgN/A
7:20 PM63 °FBroken clouds.13 mph83%29.65 "HgN/A
6:20 PM63 °FPartly sunny.12 mph83%29.65 "HgN/A
5:20 PM64 °FPartly sunny.12 mph83%29.65 "HgN/A
4:20 PM66 °FPartly sunny.9 mph78%29.65 "HgN/A
3:20 PM64 °FPartly sunny.9 mph83%29.65 "HgN/A
2:20 PM63 °FPartly sunny.12 mph83%29.65 "HgN/A
1:20 PM63 °FBroken clouds.15 mph83%29.65 "HgN/A
12:20 PM59 °FDrizzle. Broken clouds.13 mph88%29.65 "HgN/A
Weather by CustomWeather, © 2015

See weather overviewHow to use our weather pages